Regional Weather Roundup
Issued by NWS Green Bay, WI

Home | Current Version | Previous Version | Graphics & Text | Print | Product List | Glossary Off
Versions: 1 2 3 4 5 6 7 8 9 10 11 12 13 14 15 16 17 18 19 20 21 22 23 24 25 26 27 28 29 30 31 32 33 34 35 36 37 38 39 40 41 42 43 44 45 46 47 48 49 50

465
ASUS43 KGRB 162111
RWRGRB

NORTH-CENTRAL AND NORTHEAST WISCONSIN REGIONAL WEATHER ROUNDUP
NATIONAL WEATHER SERVICE GREEN BAY WI
400 PM CDT MON OCT 16 2017

WIZ005-009-010>012-018-019-162200-
NORTH CENTRAL WISCONSIN

CITY           SKY/WX    TMP DP  RH WIND       PRES   REMARKS
IRONWOOD       CLOUDY    58  34  40 SW16G22   30.04F
MANITOWISH WTR SUNNY     55  34  45 SW13      30.06F
ARBOR VITAE    SUNNY     57  37  47 SW13      30.08F
EAGLE RIVER    SUNNY     55  32  41 W14       30.08F
LAND O LAKES   SUNNY     56  34  43 SW5       30.08F
RHINELANDER    SUNNY     56  36  47 SW10      30.10F
PHILLIPS       SUNNY     56  35  45 SW8       30.08F
ANTIGO         SUNNY     54  37  51 SW13G18   30.13S
TOMAHAWK       SUNNY     56  33  41 CALM      30.11S
MERRILL        SUNNY     58  34  40 W15G21    30.12S
$$

WIZ013-073-162200-
NORTHEAST WISCONSIN

CITY           SKY/WX    TMP DP  RH WIND       PRES   REMARKS
IRON MOUNTAIN  MOSUNNY   57  34  41 W7        30.09S
MARINETTE      MOSUNNY   57  37  47 SW9       30.14F
OCONTO         MOSUNNY   58  36  44 W8G17     30.14F
$$

WIZ017-030-035>037-045-162200-
CENTRAL WISCONSIN

CITY           SKY/WX    TMP DP  RH WIND       PRES   REMARKS
MEDFORD        SUNNY     56  33  41 W10       30.11F
WAUSAU         SUNNY     57  36  45 SW13G22   30.11F
MOSINEE        MOSUNNY   57  36  44 SW13      30.15S
MARSHFIELD     SUNNY     58  34  40 SW16      30.13F
WISC RAPIDS    SUNNY     60  35  39 W12       30.16S
STEVENS POINT  SUNNY     57  33  40 W14       30.15S
WAUPACA        SUNNY     61  36  38 SW13G18   30.16F
SHAWANO        SUNNY     60  36  40 W9G17     30.14F
CLINTONVILLE   SUNNY     59  34  38 W12       30.14F
WAUTOMA        SUNNY     61  37  41 SW14      30.16F
$$

WIZ038-039-048-051-162200-
FOX VALLEY

CITY           SKY/WX    TMP DP  RH WIND       PRES   REMARKS
NWS GREEN BAY  MOSUNNY   58  39  49 SW10      30.16F
APPLETON       MOSUNNY   57  30  35 SW12G21   30.16S
OSHKOSH        SUNNY     59  37  44 VRB6      30.16F
FOND DU LAC    SUNNY     60  34  37 SW9G20    30.18F
$$

WIZ022-050-052-162200-
EAST CENTRAL WISCONSIN

CITY           SKY/WX    TMP DP  RH WIND       PRES   REMARKS
EPHRAIM        FAIR      55  39  54 SW7G16    30.13F
WASHINGTON ISL FAIR      54  40  59 SW10      30.13F
STURGEON BAY   SUNNY     57  37  47 SW16      30.15F
MANITOWOC      SUNNY     59  34  39 W10       30.18F
SHEBOYGAN      SUNNY     59  37  44 W9        30.18F
$$

LMZ563-521-522-541>543-162200-
LAKESHORE

STATION/POSITION TIME  TEMP    WIND        PRES    VSBY  WAVE
                       AIR SEA DIR/SP/G                  HT/PER
                 (UTC) (F)     (DEG/KT/KT) (MB)    (MI)  (FT/S)
SHEBOYGAN LKSHOR 2100   55     170/ 15/ 16 1021.9F
KEWAUNEE LKSHORE 2042   57     250/  6/ 12 1020.6F
NORTHPORT PIER   2040   56     200/  5/ 11 1020.3F
N MID LAKE BUOY  2050   54 60  220/ 17/ 21 1021.5F         3/ 4
S GREEN BAY BUOY 2100   57 58  220/ 12/ 14 1020.3
SISTER BAY LKSHO 2004   59     210/ 12/ 17   N/A
MENOMINEE LKSHOR 2036   56     210/  9/ 12 1020.2F
$$




USA.gov is the U.S. government's official web portal to all federal, state and local government web resources and services.